x

Half Moon Bay - 24nm Ssw Of San Francisco, Ca (46012) Wave Buoy

1:50pm - Fri 27th Mar 2015 All times are PDT. -7 hours from GMT.

  • Sig Wave height 5.9ft
  • Swell Direction
  • Peak Period 16s
  • Average Period 7s
  • Wind
    18mph, 22mph gusts
  • Sea Temp 56°f
  • Air Temp 55°f
  • Sea Pressure 1021.8mb
  • Half Moon Bay - 24nm Ssw Of San Francisco, Ca
  • Half Moon Bay - 24nm Ssw Of San Francisco, Ca

More Historic Weather Station data

Upgrade to MSW Pro to gain access to the past 30 days of data for over 8000 Wavebouys and Weather Stations around the globe.

Join Pro

Comparision Forecast

View Surf forecast
   
Fri 03/27 1:50pm 6ft 16s 7s 18 22 mph 1021.8mb 56f 55f
12:50pm 6ft 11s 7s 16 18 mph 1022.1mb 56f 55f
11:50am 5ft 11s 7s 13 18 mph 1022.2mb 56f 54f
10:50am 5.5ft 11s 8s 13 18 mph 1022mb 56f 54f
9:50am 5ft 11s 7s 13 18 mph 1021.2mb 56f 53f
8:50am 5ft 12s 7s 11 16 mph 1020.7mb 57f 53f
7:50am 5ft 11s 7s 11 13 mph 1020.3mb 58f 53f
6:50am 5.5ft 11s 8s 11 13 mph 1019.6mb 58f 53f
5:50am 6ft 11s 8s 11 13 mph 1019.4mb 58f 52f
4:50am 5.5ft 11s 8s 9 13 mph 1019.2mb 58f 52f
3:50am 5ft 11s 8s 9 13 mph 1019.1mb 58f 52f
2:50am 5ft 12s 8s 9 13 mph 1019.4mb 58f 52f
1:50am 5ft 11s 8s 7 11 mph 1019.6mb 58f 53f
12:50am 5ft 11s 7s 9 11 mph 1019.6mb 58f 53f
Thu 03/26 11:50pm 6ft 11s 8s 11 13 mph 1019.9mb 58f 53f
10:50pm 6ft 12s 7s 9 13 mph 1019.6mb 58f 53f
9:50pm 5.5ft 11s 7s 9 11 mph 1019.3mb 58f 53f
8:50pm 6ft 11s 7s 11 13 mph 1018.9mb 58f 53f
7:50pm 7ft 11s 7s 13 16 mph 1018.4mb 58f 53f
6:50pm 6ft 10s 7s 13 16 mph 1018.3mb 58f 54f
5:50pm 6ft 11s 7s 16 18 mph 1018.3mb 58f 54f
4:50pm 6.5ft 11s 8s 13 18 mph 1018.3mb 58f 54f
3:50pm 6ft 12s 7s 16 18 mph 1018.5mb 58f 55f
2:50pm 6ft 11s 7s 11 13 mph 1018.9mb 58f 56f
1:50pm 6ft 11s 7s 13 16 mph 1019.6mb 58f 55f
12:50pm 5.5ft 11s 6s 13 16 mph 1020.3mb 58f 55f
11:50am 6ft 11s 7s 11 13 mph 1020.7mb 58f 54f
10:50am 6ft 11s 7s 13 16 mph 1021.1mb 58f 53f
9:50am 6.5ft 11s 7s 13 16 mph 1020.9mb 58f 53f
8:50am 6.5ft 11s 7s 9 13 mph 1020.8mb 58f 53f
7:50am 6ft 11s 7s 11 13 mph 1020.6mb 58f 53f
6:50am 7ft 11s 7s 13 16 mph 1019.9mb 58f 53f
5:50am 7ft 12s 7s 16 18 mph 1019.6mb 58f 53f
4:50am 6.5ft 11s 7s 11 13 mph 1019.9mb 58f 53f
3:50am 6.5ft 11s 7s 11 16 mph 1020.1mb 58f 53f
2:50am 7ft 10s 6s 13 16 mph 1020.4mb 58f 54f
1:50am 7.5ft 7s 6s 16 20 mph 1020.6mb 58f 54f
12:50am 7ft 11s 6s 18 22 mph 1020.9mb 58f 55f
Wed 03/25 11:50pm 7ft 7s 6s 18 22 mph 1021.4mb 58f 56f
10:50pm 7ft 11s 6s 20 22 mph 1021.8mb 58f 56f
9:50pm 6ft 11s 6s 20 25 mph 1021.8mb 58f 56f
8:50pm 6ft 11s 6s 20 25 mph 1021.7mb 58f 57f
7:50pm 6.5ft 11s 6s 20 25 mph 1021.4mb 58f 56f
6:50pm 7ft 11s 6s 22 25 mph 1021.4mb 58f 57f
5:50pm 6ft 11s 6s 20 25 mph 1021.6mb 58f 57f
4:50pm 6.5ft 11s 6s 18 22 mph 1021.8mb 58f 57f
3:50pm 7ft 11s 6s 20 25 mph 1022.1mb 58f 57f
2:50pm 7ft 11s 7s 18 22 mph 1022.6mb 58f 57f
1:50pm 7.5ft 11s 7s 20 25 mph 1023.3mb 58f 56f
12:50pm 7.5ft 12s 7s 20 22 mph 1023.8mb 58f 57f
11:50am 7.5ft 13s 7s 18 20 mph 1024.2mb 58f 57f
10:50am 9ft 11s 8s 18 20 mph 1024.1mb 58f 56f
9:50am 7.5ft 11s 7s 18 22 mph 1023.8mb 58f 56f
8:50am 7ft 11s 7s 18 22 mph 1023.2mb 58f 56f
7:50am 7ft 12s 7s 20 22 mph 1022.9mb 58f 56f
6:50am 8ft 11s 7s 18 20 mph 1022.3mb 58f 56f
5:50am 7ft 12s 7s 20 22 mph 1021.9mb 58f 56f
4:50am 7.5ft 12s 7s 20 25 mph 1022.2mb 58f 57f
3:50am 8ft 11s 7s 20 25 mph 1022.3mb 58f 57f
2:50am 8ft 12s 8s 20 22 mph 1022.7mb 58f 57f
1:50am 7ft 13s 7s 18 20 mph 1023mb 58f 57f
12:50am 7ft 12s 7s 20 25 mph 1023.6mb 58f 57f
Tue 03/24 11:50pm 7.5ft 12s 7s 22 27 mph 1024.1mb 58f 57f
10:50pm 8ft 11s 8s 18 22 mph 1024.3mb 58f 57f
9:50pm 7ft 10s 8s 18 20 mph 1024.6mb 58f 58f
8:50pm 7ft 11s 8s 18 22 mph 1024.3mb 58f 58f
7:50pm 7ft 12s 9s 13 16 mph 1024.1mb 58f 58f
6:50pm 6.5ft 12s 8s 13 16 mph 1024mb 58f 58f
5:50pm 7ft 12s 9s 9 13 mph 1023.7mb 58f 58f
4:50pm 8ft 12s 8s 11 13 mph 1024.1mb 58f 58f
3:50pm 7.5ft 11s 8s 9 11 mph 1024.6mb 58f 58f
2:50pm 7ft 11s 8s 9 11 mph 1025.2mb 58f 58f
1:50pm 7.5ft 13s 9s 9 11 mph 1025.8mb 58f 58f
12:50pm 7.5ft 12s 9s 9 11 mph 1026.3mb 58f 58f
11:50am 7ft 12s 9s 9 11 mph 1026.2mb 58f 58f
10:50am 6ft 12s 9s 7 9 mph 1026.3mb 58f 57f
9:50am 6.5ft 12s 8s 7 9 mph 1026mb 58f 58f
8:50am 6.5ft 12s 8s 9 11 mph 1025.4mb 58f 58f
7:50am 7.5ft 13s 9s 7 9 mph 1025.2mb 58f 57f
6:50am 7.5ft 12s 9s 9 11 mph 1025.1mb 58f 57f
5:50am 6.5ft 13s 9s 7 9 mph 1024.6mb 58f 57f
4:50am 7ft 12s 9s 9 11 mph 1024.4mb 58f 57f
3:50am 7.5ft 12s 9s 9 11 mph 1024.9mb 58f 57f
2:50am 7ft 12s 9s 7 9 mph 1025.2mb 58f 57f
1:50am 7ft 12s 8s 7 9 mph 1025.4mb 58f 57f
12:50am 7ft 12s 8s 9 11 mph 1025.6mb 58f 57f
Mon 03/23 11:50pm 7.5ft 12s 8s 11 13 mph 1025.9mb 57f 57f
10:50pm 7ft 11s 8s 13 16 mph 1026mb 57f 57f